This is the latest recevied weather packets stored in our database for station/object IZ1UQG-N2. If no packets are shown the sender has not sent any weather packets the latest 10 day(s).
| Time | Temp. | Humidity | Pressure | Rain* | Wind** | Luminosity | Snow |
|---|---|---|---|---|---|---|---|
| 1787580002 | 27.78° C | 50% | 1013.3 hPa | 0 mm | - | 485 W/m² | - |
| 1787579943 | 27.78° C | 49% | 1013.2 hPa | 0 mm | - | 550 W/m² | - |
| 1787579883 | 27.78° C | 50% | 1013.3 hPa | 0 mm | - | 413 W/m² | - |
| 1787579823 | 27.78° C | 50% | 1013.4 hPa | 0 mm | - | 315 W/m² | - |
| 1787579763 | 27.78° C | 50% | 1013.2 hPa | 0 mm | - | 464 W/m² | - |
| 1787579703 | 27.78° C | 50% | 1013.3 hPa | 0 mm | - | 513 W/m² | - |
| 1787579642 | 28.33° C | 51% | 1013.4 hPa | 0 mm | - | 561 W/m² | - |
| 1787579582 | 28.33° C | 51% | 1013.3 hPa | 0 mm | - | 643 W/m² | - |
| 1787579522 | 28.33° C | 51% | 1013.3 hPa | 0 mm | - | 657 W/m² | - |
| 1787579462 | 28.33° C | 50% | 1013.3 hPa | 0 mm | - | 624 W/m² | - |
| 1787579402 | 28.33° C | 50% | 1013.5 hPa | 0 mm | - | 659 W/m² | - |
| 1787579343 | 28.33° C | 51% | 1013.5 hPa | 0 mm | - | 661 W/m² | - |
| 1787579283 | 28.33° C | 50% | 1013.6 hPa | 0 mm | - | 659 W/m² | - |
| 1787579223 | 28.33° C | 51% | 1013.5 hPa | 0 mm | - | 668 W/m² | - |
| 1787579163 | 28.33° C | 53% | 1013.6 hPa | 0 mm | - | 672 W/m² | - |
| 1787579103 | 28.33° C | 53% | 1013.6 hPa | 0 mm | - | 554 W/m² | - |
| 1787579042 | 28.33° C | 54% | 1013.6 hPa | 0 mm | - | 684 W/m² | - |
| 1787578982 | 28.33° C | 54% | 1013.7 hPa | 0 mm | - | 684 W/m² | - |
| 1787578922 | 27.78° C | 54% | 1013.6 hPa | 0 mm | - | 682 W/m² | - |
| 1787578862 | 27.78° C | 54% | 1013.8 hPa | 0 mm | - | 679 W/m² | - |
| 1787578802 | 27.78° C | 54% | 1013.7 hPa | 0 mm | - | 677 W/m² | - |
| 1787578743 | 27.78° C | 54% | 1013.7 hPa | 0 mm | - | 673 W/m² | - |
| 1787578683 | 27.78° C | 53% | 1013.7 hPa | 0 mm | - | 666 W/m² | - |
| 1787578623 | 28.33° C | 54% | 1013.7 hPa | 0 mm | - | 670 W/m² | - |
| 1787578563 | 28.33° C | 54% | 1013.8 hPa | 0 mm | - | 672 W/m² | - |
* Rain latest hour (hover to see other rain measurements)
** Current wind speed in m/s (hover to see current wind gust speed)